sat.trackr.live / text

‹ back to catalog

STARLINK-34821

NORAD 65199 · 2025-176B

PAYLOAD ACTIVE UNKNOWN

§ Identity

Operator
Country
US
Launch date
2025-08-14
Launch site
AFETR
Launch vehicle
Mass (kg)
RCS (m²)

Purposes: comms

External: N2YO · Heavens-Above · Gunter

§ Orbital elements

Epoch: 2026-09-20T12:40:11.873280Z

Period
93.85 min
Inclination
53.1597°
Eccentricity
0.0001218
Mean motion
15.34402023 rev/d
Perigee alt
461.9 km
Apogee alt
463.5 km
Semi-major
6,840.8 km
B*
4.8047e-4
RAAN
323.2884°
Arg perigee
79.6078°
Mean anomaly
280.5062°
Rev number
6,294

§ Raw data

STARLINK-348211 65199U 25176B   26263.52791520  .00015893  00000+0  48047-3 0  99922 65199  53.1597 323.2884 0001218  79.6078 280.5062 15.34402023 62949

JSON: /api/v1/satellites/65199 · /tle

For live sub-satellite position, see the globe view (requires WebGL).

§ Visibility from observer

Set your observer location to see the next 7 days of passes ≥ 10°. The values pass through the URL so the page stays shareable.

No JS? Fill the form by hand. The geolocation button needs JavaScript.